Regional Weather Roundup
Issued by NWS Upton, NY

Current Version | Previous Version | Graphics & Text | Print | Product List | Glossary Off
Versions: 1 2 3 4 5 6 7 8 9 10 11 12 13 14 15 16 17 18 19 20 21 22 23 24 25 26 27 28 29 30 31 32 33 34 35 36 37 38 39 40 41 42 43 44 45 46 47 48 49 50

000
ASUS41 KOKX 231505
RWROKX

Regional Weather Roundup
National Weather Service New York NY
1100 AM EDT MON APR 23 2018

Note: "FAIR" indicates few or no clouds below 12,000 feet with no
significant weather and/or obstructions to visibility.

NYZ071-072-176-178-NJZ106-104-231600-
New York City Metro Area

CITY           SKY/WX    TMP DP  RH WIND       PRES   REMARKS
Central Park   FAIR      59  27  29 VRB3      30.51S
Bronx Bot Gard   N/A     57  25  28 CALM      30.51F
Bronx Lehman C   N/A     57  21  24 E8          N/A
LaGuardia Arpt FAIR      56  27  32 NE13      30.49S
Queens College   N/A     55  30  38 N6          N/A
Kennedy Intl   FAIR      57  30  35 E13       30.50S
Breezy Point     N/A     52 N/A N/A E8          N/A
Brooklyn Coll    N/A     57  28  33 E8          N/A
Staten Island    N/A     59  32  36 SE8         N/A
Newark/Liberty FAIR      59  30  33 E7        30.48S
Teterboro      FAIR      59  21  23 E8G18     30.48S
$$

NYZ177-179-078>081-231600-
Long Island New York

CITY           SKY/WX    TMP DP  RH WIND       PRES   REMARKS
Jones Beach      N/A     50 N/A N/A E6          N/A
Wantagh          N/A     54  34  47 SE9         N/A
Hempstead        N/A     57  32  38 E9        30.52S
Matinecock Pt    N/A     46 N/A N/A NE12        N/A
Farmingdale    FAIR      56  28  34 SE13      30.49R
MacArthur/ISP  FAIR      55  29  36 SE16G24   30.49R
Stony Brook      N/A     59  32  36 NE3         N/A
Shirley        FAIR      56  25  30 SE14G22   30.51R
Mt Sinai Harb    N/A    N/A N/A N/A NE6         N/A
Westhampton    FAIR      56  17  21 SE13      30.51R
East Hampton   FAIR      57  24  28 NE9       30.49R
Southold         N/A     55  30  38 E10         N/A
Montauk          N/A     56  24  29 NE9       30.50F
$$

NYZ052-065-067-231600-
Hudson Valley

CITY           SKY/WX    TMP DP  RH WIND       PRES   REMARKS
White Plains   FAIR      57  17  21 E10       30.48S
Larchmont Harb   N/A     45 N/A N/A N9          N/A
Croton On Huds   N/A     52 N/A N/A SW3         N/A
Somers           N/A     59  25  27 SE5         N/A
Brewster         N/A     57  18  21 S6          N/A
Newburgh       SUNNY     57  21  24 CALM      30.50S
Montgomery     FAIR      59  25  27 VRB3      30.48S
Otisville        N/A     57  23  26 S6          N/A
Warwick          N/A     59  27  29 N3          N/A
Suffern          N/A     57  23  26 E2          N/A
Poughkeepsie   FAIR      58  22  24 W5        30.48S
Albany         FAIR      57  20  23 S3        30.49F
$$

NJZ001-105-106-008-010-013-015-019>022-104-231600-
New Jersey

CITY           SKY/WX    TMP DP  RH WIND       PRES   REMARKS
Newark/Liberty FAIR      59  30  33 E7        30.48S
Teterboro      FAIR      59  21  23 E8G18     30.48S
Caldwell       FAIR      59  25  27 E9        30.49S
Somerville     FAIR      62  32  32 CALM      30.45F
Linden         FAIR      59  28  31 CALM      30.49S
Perth Amboy      N/A     52 N/A N/A SE12        N/A
Sussex         FAIR      60  26  27 N3        30.47F
Andover          N/A     62  24  23 CALM      30.47S
Trenton        FAIR      62  30  29 E8        30.46F
Millville      FAIR      63  32  31 CALM      30.46S
Atlantic City  FAIR      63  34  33 CALM      30.47S
Wrightstown    FAIR      64  29  27 NE7       30.44S
Toms River     FAIR      61  32  33 VRB6      30.47F
Belmar         FAIR      58  30  34 E9        30.49S
$$

PAZ047>061-062-071-231600-
Eastern Pennsylvania

CITY           SKY/WX    TMP DP  RH WIND       PRES   REMARKS
Philadelphia   FAIR      63  36  36 VRB3      30.46F
Allentown      FAIR      62  26  25 E8        30.46F
Scranton       FAIR      61  22  22 N5        30.44F
$$

CTZ002-004>006-009-010-012-RIZ004-006-007-MAZ004-011-015-231600-
Southern New England

 In CT

CITY           SKY/WX    TMP DP  RH WIND       PRES   REMARKS
Bradley Intl   FAIR      58  16  19 NE7       30.49F
Hartford       FAIR      58  26  29 E3        30.49F
Danbury        FAIR      58  22  24 SE5       30.49S
Wtrbury/Oxford FAIR      56  19  23 E8        30.49R
Norwalk Harbor   N/A     48 N/A N/A NE9         N/A
Bridgeport     FAIR      53  23  31 SE12      30.50R
Meriden        FAIR      59  22  24 N7        30.48F
New Haven      FAIR      56  26  31 SE10      30.50R
Chester        FAIR      61  16  17 NE6       30.48S
Groton         FAIR      57  29  34 SE10      30.48F
Willimantic    FAIR      59  19  21 CALM      30.49F

 In RI

CITY           SKY/WX    TMP DP  RH WIND       PRES   REMARKS
Providence     FAIR      59  20  22 VRB3      30.50F
Block Island   FAIR      51  28  41 NE7       30.51R
Westerly       FAIR      60  26  27 SE9       30.49F

In MA

CITY           SKY/WX    TMP DP  RH WIND       PRES   REMARKS
Boston         FAIR      54  21  27 SE10      30.51S
Worcester      FAIR      53  16  23 S3        30.48S
Westfield      FAIR      57  15  19 VRB5      30.49F
Provincetown   FAIR      49  35  58 N8        30.52S
Nantucket      FAIR      55  32  41 N9        30.50R
$$

ANZ330-335-338-340-345-350-353-355-231600-
Coastal Marine Observations


STATION/POSITION TIME  SKY/WX   TEMP    WIND        PRES    VSBY  WAVE
                                AIR SEA DIR/SP/G                  HT/PER
                 (UTC)          (F)     (DEG/KT/KT) (MB)    (MI)  (FT/S)
NY Harb Entrance 1450            47 46   10/  6/  6 1032.7          1/13
20 S Fire Island 1450            46 45  160/  4/  4 1032.8          1/12
23 SSW Montauk P 1450            46 44   80/  6/  8 1032.9          1/15
15 E Barnegat Li 1430               46                N/A           1/14
Hudson Canyon    1450            48 47  160/  4/  4 1032.4          1/14
Kings Point      1448               46                N/A
Execution Rocks  NOT AVBL
Western LI Sound NOT AVBL
Central LI Sound 1445            47      80/  8/ 10   N/A           0
Robbins Reef     1448            55     170/  7/  8 1033.3
$$


>>>>>>>>>>>>>>>>>>>>>>>>>>>> KEY <<<<<<<<<<<<<<<<<<<<<<<<<<<
>                                                          <
>     SKY/WX - Sky Condition/Present Weather               <
>     TMP    - Temperature in Fahrenheit                   <
>     DP     - Dew Point in Fahrenheit                     <
>     RH     - Relative Humidity in Percent                <
>     WIND   - Direction (from) and Speed in MPH           <
>     PRES   - Mean Sea Level Pressure (inches of Hg)      <
>     WCI    - Wind Chill Index                            <
>     VSB    - Visibility in Miles                         <
>     HX     - Heat Index                                  <
>     TC     - Temperature in Celsius                      <
>     VRB    - Varibale Wind Direction                     <
>                                                          <
>>>>>>>>>>>>>>>>>>>>>>>>>>>> KEY <<<<<<<<<<<<<<<<<<<<<<<<<<<



USA.gov is the U.S. government's official web portal to all federal, state and local government web resources and services.